星链-33955 (STARLINK-33955)
导读
STARLINK-33955是美国SpaceX星链星座组网卫星,于2025年5月10日发射,是星链星座中低轨卫星互联网星座的一员,主要为全球范围用户提供高速卫星互联网接入服务,重点覆盖偏远地区及地面网络基础设施不足的区域,进一步拓展星链系统服务覆盖密度与网络能力。
Basic Information
目录编号:
63902
目录名称:
STARLINK-33955
国际标识:
2025-095N
轨道中心:
EARTH
卫星名称:
星链-33955
卫星全名:
星链-33955 (STARLINK-33955)
卫星状态:
在轨 (已飞行482 天)
发射日期:
2025-05-10 UTC
国别 :
美国
(US)
星等 :
--
Orbit Information
| 数据来源 | 国际轨道数据 |
| 星历时间: | 2026-09-04T09:45:37+0800 13小时前 查看轨道信息 |
| 半长轴: | 6861.244km |
| 偏心率: | 0.0001728 |
| 轨道倾角: | 42.998° |
| 近地点辐角 | 185.401° |
| 升交点赤经 | 248.419° |
| 平近点角 | 174.683° |
| 近地点: | 481.921km |
| 远地点: | 484.293km |
| 周期: | 94.268分钟 |
| 每日圈数: | 15.275609 |
Detailed Information
固有亮度:
5
最大亮度:
2.5
卫星平台:
Starlink V1.0
覆盖范围:
全球
运营商:
太空探索技术公司
运营商所在国:
美国
制造商(研发单位):
太空探索技术公司
制造商所在国:
美国
使用方式:
暂无
Satellite Introduction
Starlink 计划是 SpaceX 推出的全球卫星互联网项目,通过发射低轨道卫星,为全球尤其是偏远地区提供高速、低延迟的互联网服务。自 2019 年起,Starlink 已部署数千颗卫星,旨在缩小全球数字鸿沟,推动互联网普及。该项目还为军事、航空等行业提供通信支持,带来广泛经济效益。
2D Orbit Map
3D Orbit Map
Orbit Altitude Analysis Chart
Orbit Inclination Analysis Chart
Orbit Comprehensive Analysis Chart
View Comprehensive ChartConjunction Data List
| Event ID | Objects | TCA | Miss Dist (km) | Collision Risk Probability | Collision Risk Index (CRI) | Action |
|---|---|---|---|---|---|---|
| CDM_260905-211906-390206-795821 |
STARLINK-33955
(63902)
STARLINK-36799
(67958) | 2026-09-05T 21:19:51+0000 |
0.184 km
中距离 | 4.135988E-4 高风险 | 0.87 | |
| CDM_260827-224705-721706-390223 |
OBJECT AV
(57217)
STARLINK-33955
(63902) | 2026-08-27T 22:47:32+0000 |
0.677 km
远距离 | 5.833518E-5 中风险 | 0.7 | |
| CDM_260905-203206-390206-795821 |
STARLINK-33955
(63902)
STARLINK-36799
(67958) | 2026-09-05T 20:32:46+0000 |
0.514 km
远距离 | 4.859167E-5 中风险 | 0.69 | |
| CDM_260904-114105-741506-390221 |
STARLINK-30208
(57415)
STARLINK-33955
(63902) | 2026-09-04T 11:41:22+0000 |
0.700 km
远距离 | 4.754881E-5 中风险 | 0.69 | |
| CDM_260906-043205-983806-390221 |
STARLINK-31855
(59838)
STARLINK-33955
(63902) | 2026-09-06T 04:32:38+0000 |
0.918 km
远距离 | 2.328438E-5 中风险 | 0.62 | |
| CDM_260904-215305-741506-390221 |
STARLINK-30208
(57415)
STARLINK-33955
(63902) | 2026-09-04T 21:53:23+0000 |
0.873 km
远距离 | 2.324842E-5 中风险 | 0.62 | |
| CDM_260904-100705-741506-390221 |
STARLINK-30208
(57415)
STARLINK-33955
(63902) | 2026-09-04T 10:07:13+0000 |
1.185 km
极远距离 | 8.150439E-6 低风险 | 0.53 | |
| CDM_260905-151205-983806-390221 |
STARLINK-31855
(59838)
STARLINK-33955
(63902) | 2026-09-05T 15:12:20+0000 |
1.477 km
极远距离 | 4.593415E-6 低风险 | 0.48 | |
| CDM_260904-232705-741506-390221 |
STARLINK-30208
(57415)
STARLINK-33955
(63902) | 2026-09-04T 23:27:33+0000 |
1.460 km
极远距离 | 4.059675E-6 低风险 | 0.47 | |
| CDM_260906-060605-983806-390221 |
STARLINK-31855
(59838)
STARLINK-33955
(63902) | 2026-09-06T 06:06:47+0000 |
1.768 km
极远距离 | 2.668859E-6 低风险 | 0.44 |

